TimeMDT,TemperatureF,Dew PointF,Humidity,Sea Level PressureIn,VisibilityMPH,Wind Direction,Wind SpeedMPH,Gust SpeedMPH,PrecipitationIn,Events,Conditions,WindDirDegrees,DateUTC
12:53 AM,68.0,48.9,50,29.91,10.0,NNE,6.9,-,N/A,,Partly Cloudy,30,2013-07-17 06:53:00
1:53 AM,61.0,48.0,62,29.94,10.0,NE,4.6,-,N/A,,Clear,50,2013-07-17 07:53:00
2:53 AM,61.0,48.0,62,29.96,10.0,NE,3.5,-,N/A,,Clear,50,2013-07-17 08:53:00
3:53 AM,62.1,48.9,62,29.96,10.0,Calm,Calm,-,N/A,,Clear,0,2013-07-17 09:53:00
4:53 AM,66.0,51.1,59,29.96,10.0,WSW,5.8,-,N/A,,Partly Cloudy,240,2013-07-17 10:53:00
5:53 AM,61.0,50.0,67,30.01,10.0,SSE,3.5,-,N/A,,Clear,160,2013-07-17 11:53:00
6:53 AM,62.1,50.0,65,30.01,10.0,Calm,Calm,-,N/A,,Clear,0,2013-07-17 12:53:00
7:53 AM,66.0,51.1,59,30.02,10.0,ESE,3.5,-,N/A,,Clear,110,2013-07-17 13:53:00
8:53 AM,71.1,52.0,51,30.03,10.0,Calm,Calm,-,N/A,,Clear,0,2013-07-17 14:53:00
9:53 AM,77.0,51.1,40,30.01,9.0,SW,4.6,-,N/A,,Clear,220,2013-07-17 15:53:00
10:53 AM,79.0,50.0,36,30.01,10.0,Calm,Calm,-,N/A,,Clear,0,2013-07-17 16:53:00
11:53 AM,82.9,51.1,33,30.00,10.0,Variable,5.8,-,N/A,,Clear,0,2013-07-17 17:53:00
12:53 PM,84.0,51.1,32,29.97,10.0,Variable,5.8,-,N/A,,Clear,0,2013-07-17 18:53:00
1:53 PM,87.1,48.0,26,29.96,10.0,SSW,5.8,-,N/A,,Clear,210,2013-07-17 19:53:00
2:53 PM,89.1,46.0,22,29.93,6.0,SW,8.1,-,N/A,,Haze,220,2013-07-17 20:53:00
3:53 PM,89.1,43.0,20,29.91,10.0,SW,4.6,-,N/A,Thunderstorm,Clear,230,2013-07-17 21:53:00
4:24 PM,89.6,48.2,24,30.21,6.0,WSW,18.4,26.5,N/A,,Haze,240,2013-07-17 22:24:00
4:31 PM,87.8,50.0,27,30.21,3.0,West,17.3,26.5,N/A,Thunderstorm,Haze,260,2013-07-17 22:31:00
4:46 PM,86.0,51.8,31,30.22,7.0,WSW,11.5,-,N/A,,Mostly Cloudy,250,2013-07-17 22:46:00
4:53 PM,82.9,53.1,36,29.92,8.0,SSW,11.5,26.5,N/A,Thunderstorm,Thunderstorm,200,2013-07-17 22:53:00
5:00 PM,73.4,57.2,57,30.24,1.8,East,33.4,44.9,0.04,Rain-Thunderstorm,Light Thunderstorms and Rain,90,2013-07-17 23:00:00
5:05 PM,69.8,57.2,64,30.25,1.2,East,27.6,48.3,0.09,Rain-Thunderstorm,Thunderstorms and Rain,80,2013-07-17 23:05:00
5:13 PM,66.2,55.4,68,30.26,0.8,ENE,20.7,41.4,0.37,Rain-Thunderstorm,Heavy Thunderstorms and Rain,70,2013-07-17 23:13:00
5:24 PM,69.8,53.6,56,30.25,0.5,West,9.2,26.5,0.92,Rain-Thunderstorm,Heavy Thunderstorms and Rain,280,2013-07-17 23:24:00
5:28 PM,71.6,53.6,53,30.25,1.0,NNW,5.8,-,0.96,Rain-Thunderstorm,Heavy Thunderstorms and Rain,330,2013-07-17 23:28:00
5:33 PM,69.8,55.4,60,30.25,2.0,WSW,9.2,-,0.97,Rain-Thunderstorm,Light Thunderstorms and Rain,250,2013-07-17 23:33:00
5:41 PM,68.0,60.8,78,30.25,10.0,West,5.8,-,0.97,Rain-Thunderstorm,Light Rain,260,2013-07-17 23:41:00
5:50 PM,69.8,59.0,68,30.25,10.0,North,5.8,-,0.97,Rain,Light Rain,10,2013-07-17 23:50:00
5:53 PM,69.1,57.9,68,30.01,10.0,NW,3.5,-,0.97,Rain,Light Rain,320,2013-07-17 23:53:00
6:11 PM,69.8,60.8,73,30.25,10.0,North,3.5,-,N/A,Thunderstorm,Mostly Cloudy,10,2013-07-18 00:11:00
6:26 PM,69.8,60.8,73,30.25,10.0,NE,5.8,-,N/A,,Overcast,50,2013-07-18 00:26:00
6:53 PM,72.0,59.0,64,30.00,10.0,NNW,6.9,-,0.00,Rain-Thunderstorm,Light Rain,340,2013-07-18 00:53:00
7:08 PM,69.8,62.6,78,30.26,10.0,SE,5.8,-,0.00,,Scattered Clouds,140,2013-07-18 01:08:00
7:53 PM,69.1,61.0,75,30.00,10.0,Calm,Calm,-,0.00,,Clear,0,2013-07-18 01:53:00
8:53 PM,66.9,62.1,84,30.01,10.0,East,5.8,-,N/A,,Partly Cloudy,80,2013-07-18 02:53:00
9:53 PM,66.9,62.1,84,30.02,10.0,Calm,Calm,-,N/A,,Clear,0,2013-07-18 03:53:00
10:53 PM,64.0,60.1,87,30.04,10.0,NE,3.5,-,N/A,,Clear,50,2013-07-18 04:53:00
11:53 PM,64.0,57.9,80,30.01,10.0,Calm,Calm,-,N/A,,Mostly Cloudy,0,2013-07-18 05:53:00